Regional Weather Roundup
Issued by NWS

Home | Current Version | Previous Version | Text Only | Print | Product List | Glossary Off
Versions: 1 2 3 4 5 6 7 8 9 10 11 12 13 14 15 16 17 18 19 20 21 22 23 24 25 26 27 28 29 30 31 32 33 34 35 36 37 38 39 40 41 42 43 44 45 46 47 48 49 50

000
ASUS44 KMEG 011210
RWRTN
TENNESSEE HOURLY STATE WEATHER ROUNDUP
NATIONAL WEATHER SERVICE MEMPHIS TN
700 AM CDT SUN MAY 01 2016

TNZ002-004-019-021-049-052-054-088>092-011300-
WEST TENNESSEE

CITY           SKY/WX    TMP DP  RH WIND       PRES   REMARKS
MEMPHIS INTL   PTCLDY    65  63  93 CALM      29.89R
NWS MEMPHIS      N/A     64 N/A N/A MISG        N/A
JACKSON        MOSUNNY   64  63  96 CALM      29.91F
DYERSBURG      PTCLDY    63  63 100 S3          N/A
UNION CITY     CLOUDY    63  63 100 SE5       29.90R
LEXINGTON      CLOUDY    64  64 100 S3        29.93R
$$

TNZ008-025-027-028-033-062-065-066-011300-
NORTH MIDDLE TENNESSEE

CITY           SKY/WX    TMP DP  RH WIND       PRES   REMARKS
NASHVILLE      PTSUNNY   65  62  90 S6        29.95R
CLARKSVILLE    CLOUDY    64  63  96 SW5       29.92S
SMYRNA         MOSUNNY   65  65 100 S5        29.97R
COOKEVILLE     PTSUNNY   64  64 100 CALM      29.97R
CROSSVILLE     MOSUNNY   66  62  87 VRB3      30.02R
$$

TNZ061-075-076-078-094-096-097-011300-
SOUTH MIDDLE TENNESSEE

CITY           SKY/WX    TMP DP  RH WIND       PRES   REMARKS
FAYETTEVILLE   CLOUDY    66  64  94 S6        29.97R
TULLAHOMA      MOSUNNY   64  64 100 S3        29.99R
WINCHESTER     PTSUNNY   64  63  94 CALM      29.98S
MCMINNVILLE    MOSUNNY   68  68 100 S6        29.98R
COLUMBIA       MOSUNNY  N/A N/A N/A S3        29.94R
SHELBYVILLE    PTSUNNY   66  66 100 S6        29.97R
$$

TNZ017-018-042-046-047-011300-
NORTHEAST TENNESSEE

CITY           SKY/WX    TMP DP  RH WIND       PRES   REMARKS
TRI CITIES     HVY RAIN  60  59  96 CALM      30.01R FOG
$$

TNZ012-013-036-069-073-074-011300-
CENTRAL EAST TENNESSEE

CITY           SKY/WX    TMP DP  RH WIND       PRES   REMARKS
KNOXVILLE      FOG       63  63 100 CALM      29.99R VSB 3/4
OAK RIDGE      CLOUDY    64  62  93 CALM      30.01R
GATLINBURG     CLOUDY    63  63 100 CALM      30.00R
$$

TNZ083-085-099-011300-
SOUTHEAST TENNESSEE

CITY           SKY/WX    TMP DP  RH WIND       PRES   REMARKS
CHATTANOOGA    MOSUNNY   65  63  93 CALM      29.99R
$$

SKY/WX REPORTED AS FAIR MEANS FEW OR NO CLOUDS BELOW
12 THOUSAND FEET.





USA.gov is the U.S. government's official web portal to all federal, state and local government web resources and services.